Regional Weather Roundup
Issued by NWS Sterling, VA

Home | Current Version | Previous Version | Text Only | Print | Product List | Glossary On
Versions: 1 2 3 4 5 6 7 8 9 10 11 12 13 14 15 16 17 18 19 20 21 22 23 24 25 26 27 28 29 30 31 32 33 34 35 36 37 38 39 40 41 42 43 44 45 46 47 48 49 50
000
ASUS41 KLWX 011911
RWRLWX

REGIONAL WEATHER ROUNDUP
NATIONAL WEATHER SERVICE BALTIMORE MD/WASHINGTON DC
200 PM EST WED MAR 01 2017

Note: "FAIR" indicates few or no clouds below 12,000 feet
with no significant weather and/or obstructions to visibility.
 TC=TEMPERATURE CELSIUS

 * =Non NWS site. Station does not report precipitation (e.g. rain,
    snow, etc.), thunder, or fog.

DCZ001-MDZ009-015-VAZ040>042-051-053>054-012000-
WASHINGTON METRO

CITY           SKY/WX    TMP DP  RH WIND       PRES   REMARKS
WASHINGTON NAT CLOUDY    70  61  73 W23G36    29.70R
DULLES         CLOUDY    69  47  45 W29G44    29.68R
ANDREWS AFB    HVY RAIN  72  59  64 W24G60    29.68R VSB 1/2
FT BELVOIR     LGT RAIN  70  58  66 W14G26    29.67R
QUANTICO       LGT RAIN  65  61  87 W16G38    29.72R
COLLEGE PARK*  CLOUDY    70  57  64 W16G38    29.67R
LEESBURG*      CLOUDY    70  57  64 MISG      29.69R
MANASSAS*      LGT RAIN  68  58  70 W16G24    29.69R
GAITHERSBURG*  CLOUDY    66  54  63 W29G47    29.71R

$$

MDZ006>007-011-014-012000-
BALTIMORE METRO

CITY           SKY/WX    TMP DP  RH WIND       PRES   REMARKS
BWI AIRPORT    LGT RAIN  70  59  68 W28G48    29.62R
MD SCIENCE CTR   N/A     76  56  49 MISG      29.57F
MARTIN STATE   PTSUNNY   75  61  60 SW17G29   29.59F
ANNAPOLIS      PTSUNNY   80  56  43 SW16G31   29.58F
FORT MEADE*    CLOUDY    70  59  68 W20G39    29.68R

$$

MDZ012-015-019>023-012000-
MARYLAND EASTERN SHORE

CITY           SKY/WX    TMP DP  RH WIND       PRES   REMARKS
OCEAN CITY     SUNNY     66  59  78 SW23G32   29.70F
SALISBURY      SUNNY     76  61  59 SW23G39   29.67F
BAY BRIDGE AP* PTSUNNY   75  57  53 S14G26    29.60F
CAMBRIDGE*     SUNNY     75  59  57 SW18G26   29.65F
EASTON*        PTSUNNY   77  59  53 SW21G28   29.65F

$$

MDZ017>025-012000-
SOUTHERN MARYLAND

CITY           SKY/WX    TMP DP  RH WIND       PRES   REMARKS
PATUXENT RIVER PTSUNNY   78  59  51 SW24G38   29.65F
ST INIGOES     MOSUNNY   77  56  48 SW25G33   29.66F
LEONARDTOWN*   MOSUNNY   77  55  47 SW25G36   29.65F

$$

MDZ003>005-012000-
NORTH CENTRAL MARYLAND

CITY           SKY/WX    TMP DP  RH WIND       PRES   REMARKS
FREDERICK*     PTSUNNY   64  63  94 W18G31    29.69R
HAGERSTOWN APT CLOUDY    64  56  75 W12       29.61F
WESTMINSTER*   LGT RAIN  64  61  88 W16G37    29.64R

$$

MDZ501>502-012000-
WESTERN MARYLAND

CITY           SKY/WX    TMP DP  RH WIND       PRES   REMARKS
OAKLAND*       CLOUDY    48  45  87 SW18G28   29.63S
CUMBERLAND*    MOSUNNY   63  50  63 S12G22    29.62F

$$

VAZ025>031-012000-
SHENANDOAH VALLEY

CITY           SKY/WX    TMP DP  RH WIND       PRES   REMARKS
WINCHESTER*    CLOUDY    64  45  48 SW21G29   29.66F
FRONT ROYAL*   CLOUDY    66  46  48 W21G31    29.70F
LURAY*         PTSUNNY   66  46  48 W18G26    29.74F
NEW MARKET*    CLOUDY    65  43  44 SW15G32   29.71F
STAUNTON*      CLOUDY    62  47  58 SW13G20   29.80F
WAYNESBORO*    CLOUDY    61  46  56 W10G20    29.82F

$$

WVZ021-048>050-054>055-012000-
EASTERN WEST VIRGINIA PANHANDLE

CITY           SKY/WX    TMP DP  RH WIND       PRES   REMARKS
MARTINSBURG    MOSUNNY   64  49  57 SW17G38   29.60F
PETERSBURG*    CLOUDY    66  50  55 S18G28    29.63F

$$

VAZ036>039-050-012000-
CENTRAL FOOTHILLS

CITY           SKY/WX    TMP DP  RH WIND       PRES   REMARKS
CHARLOTTESVILL PTSUNNY   68  48  48 MISG      29.77S
CULPEPER*      CLOUDY    66  60  82 SW9       29.73R
ORANGE*        CLOUDY    64  54  68 SW16      29.76F
GORDONSVILLE*  CLOUDY    67  55  65 W10G21    29.75F
WARRENTON*     CLOUDY    66  55  66 W9        29.72R

$$

VAZ055>057-012000-
NORTH AND CENTRAL PIEDMONT

CITY           SKY/WX    TMP DP  RH WIND       PRES   REMARKS
FREDERICKSBRG* RAIN      62  57  86 W21G35      N/A
STAFFORD*      LGT RAIN  62  60  94 W5G17     29.77R

$$

NCZ024-NYZ072-PAZ021-071-VAZ022-071-012000-
OTHER REGIONAL OBSERVATIONS

CITY           SKY/WX    TMP DP  RH WIND       PRES   REMARKS
NEW YORK CITY  CLOUDY    63  58  83 VRB5      29.58S
PHILADELPHIA   CLOUDY    72  59  63 SW20G33   29.56F
PITTSBURGH     CLOUDY    58  49  72 SW22G38   29.50F
ROANOKE        LGT RAIN  61  49  64 W22G32    29.89R
RICHMOND       CLOUDY    80  57  45 SW31G40   29.72F
RALEIGH        CLOUDY    78  56  46 SW28G44   29.86F

$$

ANZ530>537-012000-
MARINE OBSERVATIONS

STATION/POSITION TIME  TEMP    WIND        PRES
                       AIR SEA DIR/SP/G
                 (UTC) (F)     (DEG/KT/KT) (MB)
THOMAS PT LIGHT  1900   74 47  230/ 28/ 33   N/A
BALT KEY BRIDGE  1836   75     210/ 15/ 23 1001.2F
COVE POINT       1836   76     240/ 27/ 40 1004.3F
LEWISETTA        1836   75 52  240/ 25/ 33 1004.5F
SOLOMONS ISLAND  1836   72 47  230/ 25/ 30   N/A
PINEY POINT      1836          250/ 14/ 22   N/A

$$




USA.gov is the U.S. government's official web portal to all federal, state and local government web resources and services.